TimeCST,TemperatureF,Dew PointF,Humidity,Sea Level PressureIn,VisibilityMPH,Wind Direction,Wind SpeedMPH,Gust SpeedMPH,PrecipitationIn,Events,Conditions,WindDirDegrees,DateUTC
6:00 AM,75,73,91,29.78,9,NNE,3.5,,,Fog,Patches of Fog,30,2013-09-14 12:00:00
6:00 AM,75.2,73.4,94,29.77,6.2,NNE,3.5,-,N/A,,Scattered Clouds,30,2013-09-14 12:00:00
7:00 AM,77.0,73.4,89,29.79,6.2,Calm,Calm,-,N/A,,Mostly Cloudy,0,2013-09-14 13:00:00
8:00 AM,78.8,75.2,89,29.81,6.2,SSE,3.5,-,N/A,,Mostly Cloudy,160,2013-09-14 14:00:00
9:00 AM,84,78,76,29.84,12,SSE,3.5,,,,Partly Cloudy,150,2013-09-14 15:00:00
9:00 AM,84.2,77.0,79,29.83,6.2,SSE,3.5,-,N/A,,Mostly Cloudy,150,2013-09-14 15:00:00
10:00 AM,87.8,77.0,70,29.82,6.2,WNW,3.5,-,N/A,,Mostly Cloudy,300,2013-09-14 16:00:00
11:00 AM,87.8,75.2,66,29.82,6.2,NW,3.5,-,N/A,,Mostly Cloudy,310,2013-09-14 17:00:00
12:00 PM,84,77,75,29.82,12,WNW,6.9,,,,Overcast,290,2013-09-14 18:00:00
12:00 PM,84.2,77.0,79,29.80,6.2,WNW,6.9,-,N/A,,Mostly Cloudy,290,2013-09-14 18:00:00
1:00 PM,84.2,77.0,79,29.77,6.2,WNW,8.1,-,N/A,,Mostly Cloudy,290,2013-09-14 19:00:00
2:00 PM,84.2,77.0,79,29.75,6.2,West,6.9,-,N/A,,Mostly Cloudy,280,2013-09-14 20:00:00
3:00 PM,86,77,67,29.75,12,WNW,8.1,,,,Overcast,290,2013-09-14 21:00:00
3:00 PM,86.0,77.0,74,29.74,6.2,WNW,8.1,-,N/A,,Mostly Cloudy,290,2013-09-14 21:00:00
4:00 PM,84.2,77.0,79,29.73,6.2,West,9.2,-,N/A,,Mostly Cloudy,280,2013-09-14 22:00:00
5:00 PM,82.4,75.2,79,29.75,6.2,West,4.6,-,N/A,,Overcast,270,2013-09-14 23:00:00
6:00 PM,82,76,78,29.78,12,Calm,Calm,,,,Overcast,,2013-09-15 00:00:00
6:00 PM,82.4,77.0,84,29.77,6.2,Calm,Calm,-,N/A,,Overcast,0,2013-09-15 00:00:00
7:00 PM,80.6,77.0,89,29.89,6.2,Calm,Calm,-,N/A,,Overcast,0,2013-09-15 01:00:00
8:00 PM,80.6,77.0,89,29.82,6.2,Calm,Calm,-,N/A,,Overcast,0,2013-09-15 02:00:00